Location: Mercogliano
(40.9167°N, 14.7333°E)
Time: 03:23:40
(UTC+00:00)

USA 238 - Pass Details

Date: 18 September 2020
Orbit: 1006 x 1206 km, 63.4° (Epoch: 15 October)

Event Time Altitude Azimuth Distance (km) Brightness Sun altitude
Rises 19:34:49 0° 324° (NW) 3,965 7.7 -27.9°
Reaches altitude 10° 19:37:27 10° 324° (NW) 3,030 6.9 -28.4°
Maximum altitude 19:44:45 86° 237° (WSW) 1,180 3.8 -29.6°
Enters shadow 19:45:44 70° 158° (SSE) 1,243 3.7 -29.7°
